SKYSAT-C3

Last updated on Fri Oct 04 2024 00:02:25 GMT+0000 (Coordinated Universal Time)

1 41774U 16058E 24277.23398301 .00032092 00000+0 78427-3 0 9990 2 41774 96.9967 326.8166 0002411 219.4678 140.6394 15.40754830450281
UTC large
Height (km)
Speed (km/s)
/
Latitude / Longitude
Inclination (degrees)
Orbital Period (minutes)
Azimuth
Elevation
Range (km)
Doppler Factor

Next 0 passes for location: London (51.5072 / 0.1276)

Sorry there are no passes over London.